Dewpoint
48 48 48 48 48 48 48 48 49 49 49 45 39 46 49 40 37 48 51 52 54 44 31 29 31 26 31 34 35 33 34 29 30 31 32 30 32 28 29 31 26 28 24 26 22 23 17 20 14 23 20 26 26 30 31 31 31 26 13 26 19 25 15 14 15 16 19 15 18 12 18 19 18 14 11 14 15 18 15 15 14 11 10 9 10 9 11
48 48 48 48 48 48 48 48 48 48 48 45 46 46 41 40 40 43 55 55 48 43 23 24 26 26 35 35 35 36 35 33 31 29 29 30 23 27 26 30 30 27 29 22 22 26 15 25 20 15 18 20 31 30 31 29 24 26 23 19 25 16 12 14 13 11 13 7 8 11 16 18 10 12 14 19 20 17 15 13 14 10 10 11 9 8 12
48 48 48 48 48 47 48 48 48 48 48 48 47 43 39 37 42 39 43 42 41 39 36 32 25 22 27 25 27 30 34 35 34 32 32 29 23 24 24 29 27 27 27 26 25 26 20 17 16 14 14 21 29 31 29 30 25 30 29 30 28 20 18 14 10 7 6 7 10 14 16 16 13 15 19 17 19 14 14 12 13 11 12 13 12 12 12
48 48 48 48 47 47 48 48 48 48 48 48 48 47 45 33 26 40 41 40 38 34 33 33 28 23 21 23 27 25 27 34 33 34 32 29 29 20 27 28 22 24 27 27 26 26 23 18 16 15 15 21 30 28 30 30 29 28 29 29 24 20 19 14 14 13 13 15 16 19 20 14 12 16 20 16 18 18 14 14 13 12 14 13 13 14 11
48 48 47 47 47 47 47 48 47 48 48 48 46 49 43 35 29 26 27 37 34 26 32 32 29 25 27 21 24 19 25 30 31 36 29 30 30 28 28 28 27 25 26 24 22 22 24 23 17 15 15 15 19 28 30 30 31 29 29 28 21 18 17 19 21 18 17 17 16 15 18 13 15 15 15 16 17 16 11 11 13 16 15 12 14 12 11
47 47 47 47 47 47 47 47 47 48 48 48 48 44 40 34 32 35 30 33 25 27 27 33 32 30 31 22 27 24 25 23 20 32 29 29 27 27 28 26 28 28 26 25 20 21 21 25 18 20 14 19 20 23 29 27 28 27 21 18 18 18 16 19 14 14 15 15 14 13 17 15 15 14 12 11 19 16 13 16 17 15 12 12 10 7 6
47 47 47 47 47 47 47 47 47 48 48 48 46 46 40 38 33 32 34 34 26 29 31 33 34 33 27 20 26 24 25 24 26 27 27 28 26 28 18 27 26 26 25 24 18 23 15 18 24 18 17 20 18 19 25 26 29 25 17 16 18 17 17 20 17 15 15 16 16 17 17 15 11 12 10 8 10 10 12 12 9 7 7 7 5 5 5
47 47 47 47 47 47 46 46 47 48 48 49 49 45 43 36 36 26 34 30 21 24 25 29 31 30 26 22 29 27 26 27 27 27 25 20 27 26 24 29 27 26 26 24 21 23 24 15 17 18 17 18 18 18 16 18 20 19 18 18 16 17 15 17 15 14 18 18 16 11 16 12 8 8 9 8 6 6 6 8 8 8 7 7 6 6 8
47 47 47 47 47 46 46 47 47 47 48 50 47 42 42 41 38 44 37 31 24 19 26 28 27 21 24 22 29 27 30 30 30 28 32 26 29 28 30 29 27 28 26 27 25 30 28 28 27 28 22 19 22 17 18 20 20 19 19 18 19 13 17 15 16 15 15 12 14 16 15 11 8 5 6 5 3 7 6 8 7 7 9 8 8 10 11
47 47 46 46 46 46 46 47 47 47 47 48 44 41 41 40 38 42 39 28 22 19 21 23 27 25 25 27 30 26 32 28 30 23 32 31 32 32 29 30 28 26 28 26 31 30 30 30 28 26 26 24 23 23 24 22 21 22 21 20 20 19 16 17 17 14 13 15 17 15 14 11 9 7 6 6 6 6 7 7 9 10 8 10 11 11 10
46 46 46 46 46 46 47 47 47 46 47 47 48 44 40 45 44 38 39 27 23 21 23 23 24 26 29 32 29 28 27 28 30 24 22 32 33 30 31 31 27 22 28 31 31 29 31 28 27 25 25 23 22 21 24 25 19 21 21 18 19 17 17 17 15 11 14 15 14 14 12 10 9 8 15 11 6 8 7 7 10 12 14 12 11 9 8
47 47 47 47 47 46 46 46 46 46 46 48 47 47 45 44 45 40 35 28 25 23 20 24 29 31 33 30 27 28 30 32 31 29 26 29 31 30 32 31 26 24 30 29 28 27 27 28 29 24 25 26 26 25 27 24 18 16 16 19 17 16 17 18 14 13 15 16 15 13 7 10 9 8 8 8 8 9 9 11 12 13 10 8 8 8 8
47 47 47 47 46 45 45 45 45 46 47 47 48 47 41 39 47 38 36 31 24 19 19 23 21 24 28 28 29 29 30 30 30 30 31 30 30 31 31 31 30 32 31 30 29 27 25 24 24 26 25 25 26 27 25 24 23 22 17 17 17 17 18 18 16 16 16 13 12 5 8 15 16 9 9 12 10 10 10 10 12 11 9 9 8 8 8
47 46 47 46 45 45 45 45 46 46 48 46 45 43 39 43 46 42 35 29 24 22 20 23 22 25 28 29 27 30 30 30 23 29 29 31 30 31 34 33 33 31 31 29 26 25 21 20 18 17 17 21 21 21 25 23 24 22 22 19 19 17 15 17 15 13 9 11 11 12 11 10 8 8 9 10 9 10 10 9 10 10 10 9 9 8 8
47 47 46 44 45 45 45 45 45 47 47 46 46 45 39 38 39 46 36 37 23 24 26 25 25 28 29 28 29 26 27 26 23 25 31 30 28 31 32 33 31 31 30 23 23 21 18 16 14 12 17 16 8 12 23 18 21 21 21 19 16 15 13 15 13 13 15 11 10 8 8 6 7 11 14 13 13 13 12 12 11 12 11 11 10 9 8
47 45 45 45 46 45 45 45 46 46 44 45 46 40 39 38 39 42 43 34 28 23 30 31 32 32 30 26 30 27 21 22 18 21 22 29 31 30 30 31 31 30 28 26 18 18 17 10 9 10 10 9 10 12 13 18 16 19 18 20 19 18 15 14 15 13 11 8 5 4 2 6 10 11 12 15 14 14 13 12 9 12 13 12 11 9 8
47 45 45 47 47 47 47 47 47 46 45 44 44 44 38 38 38 42 44 39 34 28 31 29 31 32 30 26 31 24 25 21 18 20 19 23 29 31 30 29 30 30 30 25 20 18 17 14 12 12 14 15 8 9 15 9 9 14 19 21 18 16 18 16 12 6 9 7 7 6 7 6 11 12 12 13 14 12 11 3 3 13 14 13 10 7 6
47 46 47 47 47 47 47 46 45 44 43 45 44 40 39 41 39 40 44 38 28 25 30 30 32 34 31 29 30 28 29 28 27 24 20 23 27 28 29 30 26 29 30 25 18 18 14 12 13 11 12 16 15 15 9 12 7 8 7 8 14 13 13 14 9 11 12 13 7 8 9 12 12 11 11 14 13 10 5 1 10 14 13 9 6 5 5
46 47 47 48 48 48 47 45 43 42 44 44 43 44 38 39 39 41 45 34 31 29 31 31 31 32 31 32 31 32 31 29 28 26 20 21 24 28 30 29 29 23 27 20 17 15 14 11 7 13 14 14 15 11 8 9 7 8 9 9 10 11 10 12 11 11 10 8 8 8 10 12 11 10 11 15 10 4 5 13 14 10 7 6 6 5 6
48 47 48 48 48 48 48 47 45 44 46 46 43 36 38 38 41 40 43 28 29 27 28 29 31 30 31 31 31 30 31 32 28 27 20 20 25 28 24 22 24 22 20 13 15 11 13 13 12 9 14 15 11 14 10 7 9 9 9 11 9 8 8 9 9 9 9 6 5 6 4 10 12 10 9 15 12 13 14 10 8 9 7 6 6 8 9
48 48 48 48 49 49 48 48 47 46 46 44 41 44 37 36 38 41 39 41 29 27 27 31 30 30 30 29 30 30 31 27 27 28 26 25 26 25 20 16 20 18 19 17 17 17 14 15 16 12 12 10 9 10 12 9 8 9 11 10 10 10 8 8 10 11 6 6 2 4 10 14 13 10 10 15 15 13 8 6 6 8 8 7 8 9 4
48 48 48 48 48 48 48 47 47 47 46 44 45 45 32 36 39 35 32 31 29 29 29 29 30 29 30 30 30 30 30 30 30 30 27 25 26 21 20 20 22 23 20 18 20 15 18 17 15 14 16 15 12 12 9 12 10 9 10 10 10 8 8 8 8 10 9 7 7 9 15 16 14 11 13 14 10 8 6 7 7 7 7 8 6 4 0
47 48 48 48 48 47 47 47 46 46 47 46 45 41 33 36 38 40 40 26 29 30 30 30 30 31 33 32 31 31 30 30 31 30 30 29 28 22 24 26 26 28 27 24 23 23 20 20 17 17 17 16 14 12 12 14 10 9 10 8 12 8 8 8 8 11 5 6 10 17 16 15 13 12 15 9 6 4 7 7 7 7 6 4 4 0 -3
47 47 47 47 46 46 46 46 46 45 43 42 42 41 39 41 39 41 36 32 28 28 29 30 31 26 27 29 30 30 30 30 30 30 31 30 29 24 28 28 28 29 24 25 22 21 21 18 18 18 15 15 15 14 11 8 7 9 10 10 9 8 9 8 7 6 6 3 7 14 15 14 12 12 11 7 4 5 7 7 7 4 2 3 3 1 0
47 47 47 47 47 47 46 46 44 42 39 43 43 39 37 37 38 39 39 24 28 28 24 26 26 29 32 30 30 30 30 30 30 30 30 29 29 29 29 29 29 29 26 25 19 23 20 19 19 16 14 15 16 13 11 12 9 9 11 9 9 10 10 7 6 7 6 5 7 13 15 14 13 12 8 4 4 5 7 8 7 5 4 4 4 4 2
48 47 47 47 47 47 46 46 46 45 44 44 44 44 43 43 41 38 40 37 34 25 24 24 28 32 28 30 29 29 31 29 30 30 30 30 30 29 29 29 30 30 29 26 21 23 20 19 19 17 17 14 16 14 10 8 8 9 9 8 8 9 12 7 8 7 8 9 9 13 14 11 11 10 6 3 4 6 6 3 3 5 5 3 1 -1 -2
46 46 45 45 46 47 47 45 44 43 43 42 43 42 40 38 41 41 40 38 30 23 26 23 26 29 31 29 29 29 30 29 29 29 30 30 30 30 30 29 29 28 25 22 20 20 19 18 18 15 16 14 15 14 13 11 10 8 10 7 10 9 9 9 9 8 8 8 10 12 8 8 9 9 5 3 5 7 4 3 4 3 1 -2 -2 -2 -1
45 45 45 45 45 45 46 44 41 40 42 42 41 41 42 40 39 40 40 41 39 27 24 22 24 28 30 31 30 29 30 29 29 30 30 30 30 30 29 29 28 23 23 24 19 20 18 15 13 14 15 13 15 13 14 14 14 11 8 8 9 8 9 9 8 8 8 10 11 9 8 8 7 5 3 4 6 5 4 4 2 -2 -2 -3 -3 -2 -3
45 45 46 46 47 46 46 45 39 43 42 41 42 40 39 40 41 40 42 40 40 29 25 23 23 26 24 28 31 29 30 30 30 30 30 31 31 30 28 28 23 22 22 23 23 21 21 20 19 19 17 16 15 14 14 10 9 7 7 9 10 11 11 9 9 9 10 11 9 9 7 5 3 2 3 6 6 4 5 4 1 -1 -2 -2 -2 -3 -4
45 46 46 46 47 47 46 43 43 39 41 42 42 35 32 34 38 37 37 39 37 36 26 25 23 21 25 29 31 31 30 31 30 30 30 26 25 25 25 26 24 26 24 23 22 20 19 18 15 15 17 18 14 13 12 11 8 7 9 9 10 10 9 10 11 9 9 10 9 7 4 2 3 3 5 6 5 5 3 1 1 -1 -2 -1 -2 -3 -3
45 45 46 46 47 47 46 46 46 44 40 41 39 28 25 24 36 40 38 40 38 36 24 26 23 23 24 26 26 27 28 29 27 25 27 26 24 24 25 26 23 24 22 21 20 18 18 18 16 15 17 19 18 14 10 8 7 7 8 9 8 7 6 8 11 10 10 9 6 2 2 2 5 4 3 3 4 3 1 0 -0 2 -0 -0 -3 -3 -3
45 45 46 46 47 47 45 44 43 43 41 35 34 35 31 35 40 39 39 38 39 36 23 22 20 21 22 23 26 27 30 27 27 28 25 24 22 22 23 24 23 22 26 19 17 18 17 15 16 14 14 17 18 13 11 9 7 7 8 7 7 7 9 9 8 9 8 5 2 2 1 2 3 4 3 4 3 1 -0 -2 -3 -3 0 -2 -2 -2 -2
46 46 45 45 46 45 44 43 41 39 31 33 40 42 42 42 41 41 40 39 38 25 26 23 19 18 20 24 24 28 29 24 22 22 22 20 19 20 22 22 20 21 24 23 18 16 15 15 16 16 16 16 15 12 11 7 8 9 7 7 5 8 8 9 8 7 4 2 1 1 1 2 4 4 5 4 1 -0 -2 -2 -2 -2 -2 -2 -3 -3 -3
45 44 44 43 43 43 42 41 40 40 40 42 31 30 37 39 40 41 39 39 27 25 24 22 16 17 20 22 23 25 29 21 21 20 22 20 19 18 20 19 19 18 17 18 15 15 14 17 16 15 15 16 15 12 7 9 10 9 6 5 6 8 8 7 7 5 2 1 2 2 3 4 5 5 4 3 1 -2 -1 -2 -2 -3 -3 -3 -4 -4 -4
46 45 44 45 44 43 45 41 42 38 38 36 36 37 37 36 37 38 41 34 26 20 20 21 20 19 19 21 21 21 23 21 20 19 21 20 18 18 16 21 20 19 18 20 15 16 16 15 15 15 12 14 11 8 9 9 10 8 6 5 7 9 7 6 5 3 1 1 3 3 4 5 4 3 2 1 -1 -2 -3 -3 -3 -3 -4 -4 -4 -4 -5
46 46 45 44 44 39 40 41 38 39 31 33 36 38 39 41 41 40 39 38 29 20 21 18 21 18 17 15 15 20 24 21 19 18 18 20 20 16 15 19 19 17 17 15 15 14 15 14 15 13 15 12 11 11 11 11 8 6 5 5 8 7 7 6 4 2 1 2 2 3 5 4 2 1 0 -1 -2 -2 -3 -4 -4 -4 -4 -4 -5 -5 -6
45 44 43 39 38 39 31 29 35 37 33 39 39 38 40 41 40 41 36 29 28 26 24 21 19 18 14 17 16 22 22 21 19 20 21 20 21 21 19 19 18 22 17 15 15 14 13 17 16 11 12 11 13 12 11 9 7 5 5 7 9 7 7 5 4 2 2 2 2 4 4 2 1 -0 -1 -2 -3 -3 -4 -4 -4 -4 -4 -5 -5 -5 -6
42 39 41 37 33 25 24 27 32 38 40 39 37 36 30 28 22 25 25 24 23 26 22 22 19 19 18 18 18 22 20 19 19 18 21 22 21 16 18 20 21 22 10 11 13 13 14 14 12 13 14 14 14 12 10 8 7 6 6 9 8 7 6 4 1 1 1 0 2 4 2 1 -0 -1 -2 -2 -3 -3 -4 -4 -4 -4 -5 -4 -4 -4 -5
38 38 37 31 29 22 25 31 41 40 40 35 38 24 23 24 23 21 19 21 20 21 21 20 17 16 18 19 20 24 19 17 20 17 18 21 18 12 15 12 16 13 8 9 11 14 10 10 11 12 13 15 14 11 10 8 6 6 8 9 7 6 5 2 1 1 1 1 4 4 2 0 -0 -0 -1 -1 -2 -3 -3 -4 -4 -5 -5 -4 -5 -4 -6
38 34 27 28 25 29 36 37 38 37 32 25 24 25 20 23 24 17 21 17 17 19 20 19 17 16 15 15 16 18 24 20 17 18 18 19 23 18 17 13 14 8 5 6 10 13 10 7 7 10 12 17 15 11 10 8 6 6 8 9 7 6 3 1 1 2 2 4 5 3 1 1 2 1 -0 -1 -2 -3 -4 -4 -4 -5 -5 -6 -5 -5 -7
34 31 31 26 31 34 35 35 36 29 25 24 26 21 20 19 20 19 19 15 15 15 18 18 20 19 17 16 16 17 22 21 18 18 18 15 23 24 14 6 13 7 3 6 12 10 9 8 7 8 12 14 11 10 9 7 5 6 8 8 7 4 1 0 1 2 4 5 4 2 1 0 1 1 0 -1 -1 -2 -3 -4 -5 -5 -5 -5 -6 -7 -7
40 35 35 38 36 35 33 29 25 26 28 24 19 14 16 17 19 20 16 12 13 16 20 18 16 17 19 17 16 17 19 19 20 19 16 13 20 14 6 10 9 3 -0 9 10 10 10 5 5 8 14 12 11 10 8 6 6 6 8 8 6 3 1 1 1 3 5 5 2 1 1 0 1 1 1 -0 -1 -2 -3 -4 -4 -4 -5 -5 -5 -7 -8
40 37 36 33 27 24 24 23 23 24 15 15 10 9 14 11 11 8 11 19 18 18 19 18 18 21 21 19 19 19 18 23 22 15 14 8 16 13 7 7 4 3 6 10 10 8 5 4 5 11 14 12 10 9 8 6 5 7 8 7 5 2 1 1 2 4 5 3 0 -1 0 1 -0 -1 -3 -4 -5 -6 -6 -5 -5 -5 -5 -6 -7 -8 -8
37 32 29 27 25 24 23 12 20 21 14 16 12 4 10 5 15 16 11 19 18 19 18 16 18 17 17 19 17 17 19 24 22 15 11 10 10 4 5 4 6 10 10 10 6 7 6 7 9 12 12 11 10 9 7 6 5 8 7 6 4 1 0 1 3 6 3 1 -1 -1 0 0 -1 -2 -4 -6 -7 -7 -7 -7 -5 -4 -5 -6 -8 -8 -8
24 25 28 25 16 19 19 9 19 13 8 12 21 18 11 8 16 17 19 18 19 18 18 17 17 16 17 18 16 17 19 14 22 12 4 8 6 8 6 5 9 9 7 3 4 5 6 6 13 13 12 11 10 8 6 5 6 7 6 5 3 1 0 1 3 4 1 -1 -2 -1 -1 -1 -2 -3 -4 -6 -7 -7 -8 -7 -6 -5 -7 -7 -8 -9 -9
26 23 22 12 9 15 17 12 15 15 19 19 20 21 20 20 17 18 18 17 19 19 19 17 16 16 17 17 14 14 14 13 12 6 8 7 4 2 9 12 9 4 1 5 1 1 2 6 13 12 11 10 8 7 6 6 7 7 5 3 2 1 1 2 4 2 -2 -2 -2 -2 -2 -2 -3 -4 -5 -5 -6 -7 -7 -7 -6 -7 -7 -8 -9 -9 -9
24 23 22 18 14 16 20 15 16 20 20 21 21 20 20 19 18 18 16 16 18 18 17 15 15 16 14 15 14 13 13 11 7 7 9 3 1 6 9 6 -3 -1 -4 -6 -2 1 5 11 14 11 10 9 8 6 6 6 8 6 4 3 2 1 2 3 2 1 -1 -3 -3 -3 -3 -3 -4 -5 -5 -6 -7 -7 -7 -7 -8 -8 -9 -9 -9 -9 -10
17 19 27 13 9 15 19 18 20 21 20 21 20 18 17 15 17 18 15 16 16 16 15 16 15 15 14 16 15 14 11 7 7 6 7 3 5 -0 -3 -6 -1 2 3 1 2 9 8 14 13 12 10 9 8 7 7 6 7 5 4 3 2 2 2 2 1 -0 -1 -4 -4 -3 -3 -3 -4 -5 -6 -6 -7 -7 -8 -9 -8 -9 -10 -11 -11 -11 -12
26 19 17 14 16 19 18 20 21 22 20 19 17 17 18 19 19 18 16 15 16 16 15 16 15 14 12 10 10 7 5 9 5 2 4 5 -5 -7 -7 -10 -7 -5 2 6 8 10 13 15 11 9 8 8 7 8 7 7 6 5 4 3 3 2 3 2 1 -1 -3 -5 -6 -5 -5 -4 -4 -5 -6 -8 -9 -9 -8 -9 -10 -10 -11 -12 -12 -12 -12
21 19 21 20 20 21 20 20 22 20 20 19 19 19 17 18 19 17 15 16 14 14 14 16 16 14 11 8 4 4 5 6 5 5 3 1 -1 -1 -2 -6 -2 -2 6 10 11 14 14 11 8 7 7 6 7 7 7 7 7 5 4 4 4 2 2 2 0 -2 -4 -6 -7 -7 -8 -6 -5 -6 -7 -8 -8 -8 -9 -10 -11 -12 -12 -12 -12 -13 -13
20 19 16 18 21 18 19 12 16 13 17 19 19 19 18 17 16 17 15 14 13 13 15 14 10 9 8 3 0 -3 -1 6 7 2 1 -0 2 0 -0 -4 0 8 12 15 15 15 12 9 8 7 5 5 7 6 7 7 3 2 4 6 4 3 3 2 -1 -4 -7 -6 -8 -5 -8 -8 -5 -6 -6 -8 -9 -11 -12 -11 -11 -12 -13 -12 -12 -13 -13
18 17 16 18 17 19 20 21 21 21 20 19 19 17 16 16 16 15 14 14 14 16 14 12 9 6 0 1 2 5 5 4 -0 1 2 5 4 4 4 7 12 15 14 14 13 11 10 8 7 6 6 7 7 6 6 4 1 1 2 1 2 1 -0 -3 -4 -6 -8 -8 -10 -10 -9 -9 -9 -10 -11 -11 -12 -13 -13 -12 -11 -12 -12 -11 -12 -12 -13